Home   Weather   Irvine   Past weeks

Flag for USA Past Weather in Irvine, California, USA — Yesterday and Last 2 Weeks

Now
69 °F

Broken clouds.


Feels Like: 69 °F
Forecast: 64 / 78 °F
Wind: 9 mph from South

Location: John Wayne Airport-Orange County Airport

Current Time: Jun 24, 2017 at 12:01:47 pm

Latest Report: Jun 24, 2017 at 11:03 am


Visibility: 7 mi

Pressure: 29.91 "Hg

Humidity: 76%

Dew Point: 61 °F

Location of IrvineLocation

Past Weather in Irvine — Graph

°F

Irvine Temperature Yesterday

Maximum temperature yesterday: 73 °F (at 2:53 pm)
Minimum temperature yesterday: 63 °F (at 12:53 am)
Average temperature yesterday: 67 °F

High & Low Weather Summary for the Past Weeks

 TemperatureHumidityPressure
High83 °F (Jun 16, 2:53 pm)100% (Jun 21, 2:53 am)30.04 "Hg (Jun 21, 2:53 am)
Low58 °F (Jun 13, 5:53 am)34% (Jun 12, 5:53 pm)29.69 "Hg (Jun 21, 5:53 pm)
Average68 °F74%29.86 "Hg
* Reported Jun 9 11:53 am — Jun 24 11:03 am, Irvine. Weather by CustomWeather, © 2017

Note: Actual official high and low records may vary slightly from our data, if they occured in-between our weather recording intervals... More about our weather records

Advertising

Irvine Weather History for the Previous 24 Hours

Scroll right to see more
 ConditionsComfort  
Time TempWeatherWind HumidityBarometerVisibility
11:03 am
Sat, Jun 24
69 °FBroken clouds.9 mph76%29.91 "Hg7 mi
9:53 am67 °FPartly sunny.7 mph81%29.90 "Hg4 mi
9:09 am66 °FPartly sunny.3 mph84%29.90 "Hg5 mi
8:53 am65 °FFog.No wind87%29.90 "Hg5 mi
7:53 am64 °FFog.No wind90%29.90 "Hg5 mi
7:29 am63 °FFog.5 mph90%29.90 "Hg5 mi
6:53 am64 °FFog.6 mph87%29.89 "Hg5 mi
6:28 am64 °FFog.5 mph87%29.88 "Hg5 mi
6:06 am64 °FBroken clouds.5 mph90%29.86 "Hg7 mi
4:53 am65 °FLow clouds.5 mph87%29.85 "Hg7 mi
3:53 am63 °FFog.5 mph93%29.88 "Hg6 mi
2:53 am64 °FFog.3 mph90%29.89 "Hg6 mi
1:53 am64 °FPassing clouds.3 mph90%29.89 "Hg8 mi
1:17 am64 °FPassing clouds.3 mph90%29.90 "Hg9 mi
12:53 am64 °FClear.3 mph90%29.90 "Hg10 mi
11:53 pm
Fri, Jun 23
65 °FClear.6 mph87%29.90 "Hg10 mi
10:53 pm65 °FPassing clouds.5 mph87%29.90 "Hg7 mi
9:53 pm65 °FPassing clouds.6 mph87%29.91 "Hg10 mi
8:53 pm65 °FPassing clouds.5 mph85%29.91 "Hg10 mi
7:53 pm67 °FScattered clouds.8 mph79%29.91 "Hg10 mi
6:53 pm68 °FScattered clouds.9 mph76%29.90 "Hg10 mi
5:53 pm69 °FPassing clouds.12 mph73%29.89 "Hg10 mi
4:53 pm71 °FPassing clouds.10 mph71%29.89 "Hg10 mi
3:53 pm72 °FPassing clouds.13 mph68%29.89 "Hg10 mi
2:53 pm73 °FPassing clouds.10 mph66%29.89 "Hg8 mi
1:53 pm72 °FPassing clouds.8 mph71%29.90 "Hg7 mi
12:53 pm72 °FPassing clouds.9 mph68%29.91 "Hg9 mi
Weather by CustomWeather, © 2017

See weather overviewHow to use our weather pages